924  
ASCA44 KEWX 200620  
RWRMX  
 
LATIN AMERICA AND CARIBBEAN REGIONAL WEATHER ROUNDUP  
NATIONAL WEATHER SERVICE AUSTIN/SAN ANTONIO TX  
100 AM CDT SAT OCT 20 2018  
 
NOTE: "FAIR" INDICATED FEW OR NO CLOUDS BELOW 12,000 FEET WITH NO  
SIGNIFICANT WEATHER AND/OR S TO VISIBILITY
.  
 
BAJA CALIFORNIA  
 
CITY SKY/WX TMP DP RH WIND PRES REMARKS
 
LA PAZ N/A N/A N/A N/A MISG N/A  
MEXICALI CLEAR 68 36 30 NW6 29.94S  
S.J. DEL CABO CLEAR 73 66 78 SW7 29.92S  
TIJUANA CLEAR 70 37 30 CALM 29.99S  
 
NORTHWESTERN MEXICO  
 
CITY SKY/WX TMP DP RH WIND PRES REMARKS
 
HERMOSILLO CLEAR 73 64 73 CALM 29.91S  
 
NORTHEASTERN MEXICO  
 
CITY SKY/WX TMP DP RH WIND PRES REMARKS
 
MONCLOVA N/A N/A N/A N/A MISG N/A  
MONTERREY CLOUDY 64 61 88 W5 30.13S  
REYNOSA N/A N/A N/A N/A MISG N/A  
CD. VICTORIA N/A N/A N/A N/A MISG N/A  
 
WESTERN MEXICO  
 
CITY SKY/WX TMP DP RH WIND PRES REMARKS
 
AGUASCALIENTES N/A N/A N/A N/A MISG N/A  
COLIMA N/A N/A N/A N/A MISG N/A  
DEL BAJIO PTCLDY 63 54 72 NE8 30.30F  
GUADALAJARA CLOUDY 68 59 73 CALM 30.16S  
MAZATLAN CLOUDY 79 77 94 CALM 29.85F  
P. VALLARTA CLOUDY 79 79 100 CALM 29.85F  
URUAPAN N/A N/A N/A N/A MISG N/A  
ZACATECAS CLEAR 59 52 77 CALM 30.28F  
 
CENTRAL MEXICO  
 
CITY SKY/WX TMP DP RH WIND PRES REMARKS
 
CUERNAVACA N/A N/A N/A N/A MISG N/A  
MEXICO CITY MOCLDY 59 50 72 N5 30.34F  
MORELIA MOCLDY 59 59 100 CALM 30.24R  
POZA RICA N/A N/A N/A N/A MISG N/A  
S. LUIS POTOSI MOCLDY 61 55 82 CALM 30.30F  
TOLUCA MOCLDY 55 50 82 E10 30.37F  
 
SOUTHERN MEXICO  
 
CITY SKY/WX TMP DP RH WIND PRES REMARKS
 
ACAPULCO LGT RAIN 75 75 100 NE7 29.92F  
B. DE HUATULCO N/A N/A N/A N/A MISG N/A  
P. ESCONDIDO N/A N/A N/A N/A MISG N/A  
VERACRUZ N/A N/A N/A N/A MISG N/A  
 
YUCATAN PENINSULA  
 
CITY SKY/WX TMP DP RH WIND PRES REMARKS
 
CAMPECHE LGT RAIN 75 73 94 E6 29.95F  
CANCUN PTCLDY 82 75 78 E9 29.98F  
CHETUMAL N/A N/A N/A N/A MISG N/A  
CD. DEL CARMEN N/A N/A N/A N/A MISG N/A  
COZUMEL PTCLDY 77 77 100 SE3 29.96F  
MERIDA PTCLDY 77 75 94 SE7 29.98F  
MINATITLAN N/A N/A N/A N/A MISG N/A  
TAPACHULA CLOUDY 75 73 94 CALM 29.87  
 
CENTRAL AMERICA  
 
CITY SKY/WX TMP DP RH WIND PRES REMARKS
 
MANAGUA MOCLDY 75 75 100 CALM 29.83F  
 
CARIBBEAN  
 
CITY SKY/WX TMP DP RH WIND PRES REMARKS
 
ARUBA PTCLDY 81 75 83 NE12 29.83S  
CURACAO PTCLDY 82 73 74 E15 29.80F  
KINGSTON PTCLDY 81 72 74 N3 29.89S  
NASSAU PTCLDY 75 72 88 VRB2 30.05F  
SAN JUAN MOCLDY 81 73 78 NE10 29.90F  
SANTO DOMINGO PTCLDY 73 72 94 N5 29.92S  
ST. CROIX CLEAR 81 73 78 NE5 29.89F  
ST. MAARTEN PTCLDY 79 72 78 E8 29.86F  
ST. THOMAS PTCLDY 81 73 78 NE15 29.88F  
 

 
 
 
 
CLICK HERE TO GO TO PREVIOUS BULLETINS.

The Nexlab HPC Page Main Text Page